• Join FlightAware (Why Join?)
  • Login
  • US Flag 
09:59PM EST


 

Airport Tracker/Info


-or-


 

Live Flight TrackerFlight Track Log ✈ UAL582 ✈ 06-Sep-2013 ✈ CYYZ - KORD

Flight Track Log - Related Links

Times and Time Zones

All times are in EDT time to prevent confusion due to time zone crossing. See the UAL582 flight status page for this flight to view local times or setup timezone preferences in your user account.

Time Position Orientation Groundspeed Altitude Reporting Facility
EDT Latitude Longitude Course Direction KTS MPH feet Rate Location/Type
05:30PM 43.6500 -79.6833 259° West 150 173 2,800  Level Toronto Center
05:31PM 43.6333 -79.7333 245° Southwest 150 173 4,200 1,600 Climbing Toronto Center
05:32PM 43.6667 -79.8000 305° West 260 299 6,000 2,600 Climbing Toronto Center
05:33PM 43.7000 -79.8833 299° West 270 311 9,400 2,550 Climbing Toronto Center
05:34PM 43.7000 -80.0000 270° West 320 368 11,100 1,750 Climbing Toronto Center
05:35PM 43.5200 -80.5645 259° West  Level Estimated
05:35PM 43.7167 -80.1333 280° West 380 437 12,900  Level Toronto Center
05:36PM 43.7333 -80.3000 278° West 390 449 15,300 2,200 Climbing Toronto Center
05:37PM 43.7333 -80.4333 270° West 400 460 17,300 1,850 Climbing Toronto Center
05:38PM 43.7333 -80.6000 270° West 410 472 19,000 1,600 Climbing Toronto Center
05:39PM 43.7000 -80.7667 255° West 430 495 20,500 1,550 Climbing Toronto Center
05:40PM 43.6500 -80.9167 245° Southwest 440 506 22,100 1,450 Climbing Toronto Center
05:41PM 43.6167 -81.0833 255° West 450 518 23,400 1,150 Climbing Toronto Center
05:42PM 43.5667 -81.2667 249° West 450 518 24,400 1,050 Climbing Toronto Center
05:43PM 43.5333 -81.4333 255° West 470 541 25,500 1,500 Climbing Toronto Center
05:44PM 43.5000 -81.5833 253° West 470 541 27,400 2,000 Climbing Toronto Center
05:45PM 43.4667 -81.7667 256° West 440 506 29,500 1,700 Climbing Toronto Center
05:46PM 43.4333 -81.9000 251° West 440 506 30,800 1,050 Climbing Toronto Center
05:47PM 43.3833 -82.0833 249° West 440 506 31,600 600 Climbing Toronto Center
05:48PM 43.3500 -82.2500 255° West 450 518 32,000 200 Climbing Toronto Center
05:49PM 43.3167 -82.4333 256° West 460 529 32,000 -250 Level Toronto Center
05:50PM 43.2833 -82.5833 253° West 460 529 31,500 -700 Descending Toronto Center
05:51PM 43.2333 -82.7500 248° West 440 506 30,600 -750 Descending Toronto Center
05:52PM 43.1833 -82.9000 245° Southwest 440 506 30,000 -300 Descending Toronto Center
05:53PM 43.1500 -83.0667 255° West 440 506 30,000  Level Toronto Center
05:54PM 43.1167 -83.2000 251° West 440 506 30,000  Level Toronto Center
05:55PM 43.0667 -83.3500 246° West 440 506 30,000  Level Toronto Center
05:56PM 43.0167 -83.5167 248° West 430 495 30,000  Level Toronto Center
05:56PM 43.0131 -83.5817 266° West 441 507 30,000  Level Cleveland Center
05:57PM 42.9714 -83.7358 250° West 441 507 30,000  Level Cleveland Center
05:58PM 42.9528 -83.8881 261° West 429 494 30,000  Level Cleveland Center
05:59PM 42.9356 -84.0458 262° West 429 494 30,000  Level Cleveland Center
06:00PM 42.9222 -84.2042 263° West 424 488 30,000  Level Cleveland Center
06:01PM 42.9050 -84.3561 261° West 424 488 30,000  Level Cleveland Center
06:02PM 42.8914 -84.5142 263° West 424 488 30,000  Level Cleveland Center
06:03PM 42.8814 -84.6078 262° West 417 480 30,000  Level Chicago Center
06:04PM 42.8656 -84.7633 262° West 415 478 30,000  Level Chicago Center
06:05PM 42.8483 -84.9208 262° West 419 482 30,000  Level Chicago Center
06:05PM 42.8483 -84.9208 262° West 419 482 30,000  Level Chicago Center
06:06PM 42.8328 -85.0753 262° West 415 478 30,000  Level Chicago Center
06:06PM 42.8328 -85.0753 262° West 415 478 30,000  Level Chicago Center
06:07PM 42.8158 -85.2328 262° West 419 482 30,000  Level Chicago Center
06:07PM 42.8158 -85.2328 262° West 419 482 30,000  Level Chicago Center
06:08PM 42.7989 -85.3906 262° West 420 483 30,000  Level Chicago Center
06:08PM 42.7989 -85.3906 262° West 420 483 30,000 -871 Level Chicago Center
06:09PM 42.7778 -85.5467 260° West 420 483 29,100 -871 Descending Chicago Center
06:09PM 42.7778 -85.5467 260° West 420 483 29,100 -2,323 Level Chicago Center
06:10PM 42.7439 -85.7292 256° West 414 476 26,700 -2,323 Descending Chicago Center
06:10PM 42.7439 -85.7292 256° West 414 476 26,700 -3,290 Level Chicago Center
06:11PM 42.7181 -85.8731 256° West 398 458 23,300 -3,290 Descending Chicago Center
06:11PM 42.7181 -85.8731 256° West 398 458 23,300 -2,710 Level Chicago Center
06:12PM 42.6931 -86.0128 256° West 383 441 20,500 -2,710 Descending Chicago Center
06:12PM 42.6931 -86.0128 256° West 383 441 20,500 -1,935 Level Chicago Center
06:13PM 42.6683 -86.1472 256° West 370 426 18,500 -1,935 Descending Chicago Center
06:13PM 42.6683 -86.1472 256° West 370 426 18,500 -484 Level Chicago Center
06:14PM 42.6442 -86.2792 256° West 361 415 18,000 -484 Descending Chicago Center
06:14PM 42.6442 -86.2792 256° West 361 415 18,000 -1,452 Level Chicago Center
06:15PM 42.6192 -86.4125 256° West 363 418 16,500 -1,452 Descending Chicago Center
06:15PM 42.6192 -86.4125 256° West 363 418 16,500 -1,355 Level Chicago Center
06:16PM 42.5956 -86.5394 256° West 351 404 15,100 -1,355 Descending Chicago Center
06:16PM 42.5956 -86.5394 256° West 351 404 15,100 -1,143 Level Chicago Center
06:17PM 42.5681 -86.6903 256° West 343 395 13,900 -1,143 Descending Chicago Center
06:17PM 42.5681 -86.6903 256° West 343 395 13,900 -968 Level Chicago Center
06:18PM 42.5389 -86.8114 252° West 339 390 12,900 -968 Descending Chicago Center
06:18PM 42.5389 -86.8114 252° West 339 390 12,900 -871 Level Chicago Center
06:19PM 42.5061 -86.9281 249° West 333 383 12,000 -871 Descending Chicago Center
06:19PM 42.5061 -86.9281 249° West 333 383 12,000 -1,065 Level Chicago Center
06:20PM 42.4742 -87.0436 249° West 328 377 10,900 -1,065 Descending Chicago Center
06:20PM 42.4742 -87.0436 249° West 328 377 10,900 -1,065 Level Chicago Center
06:22PM 42.4450 -87.1533 250° West 313 360 9,800 -1,065 Descending Chicago Center
06:22PM 42.4450 -87.1533 250° West 313 360 9,800 -774 Level Chicago Center
06:23PM 42.4178 -87.2519 250° West 285 328 9,000 -774 Descending Chicago Center
06:23PM 42.4178 -87.2519 250° West 285 328 9,000  Level Chicago Center
06:24PM 42.3556 -87.3322 224° Southwest 289 333 9,000  Level Chicago Center
06:24PM 42.3556 -87.3322 224° Southwest 289 333 9,000 -97 Level Chicago Center
06:25PM 42.2758 -87.3211 174° South 302 348 8,900 -97 Descending Chicago Center
06:25PM 42.2758 -87.3211 174° South 302 348 8,900 -1,355 Level Chicago Center
06:26PM 42.1928 -87.3114 175° South 300 345 7,500 -1,355 Descending Chicago Center
06:26PM 42.1928 -87.3114 175° South 300 345 7,500 -484 Level Chicago Center
06:27PM 42.0958 -87.3011 176° South 293 337 7,000 -484 Descending Chicago Center
06:27PM 42.0958 -87.3011 176° South 293 337 7,000  Level Chicago Center
06:28PM 42.0294 -87.3339 200° South 258 297 7,000  Level Chicago Center
06:28PM 42.0294 -87.3339 200° South 258 297 7,000  Level Chicago Center
06:29PM 41.9881 -87.3803 220° Southwest 208 239 7,000  Level Chicago Center
06:29PM 41.9881 -87.3803 220° Southwest 208 239 7,000 -194 Level Chicago Center
06:30PM 41.9842 -87.4475 266° West 186 214 6,800 -194 Descending Chicago Center
06:30PM 41.9842 -87.4475 266° West 186 214 6,800 -762 Level Chicago Center
06:31PM 41.9844 -87.5150 270° West 183 211 6,000 -762 Descending Chicago Center
06:31PM 41.9844 -87.5150 270° West 183 211 6,000 -1,161 Level Chicago Center
06:32PM 41.9839 -87.5950 269° West 182 209 4,800 -1,161 Descending Chicago Center
06:32PM 41.9839 -87.5950 269° West 182 209 4,800 -968 Level Chicago Center
06:33PM 41.9839 -87.6606 270° West 180 207 3,800 -968 Descending Chicago Center
06:33PM 41.9839 -87.6606 270° West 180 207 3,800 -871 Level Chicago Center
06:34PM 41.9847 -87.7258 271° West 178 205 2,900 -871 Descending Chicago Center
06:34PM 41.9847 -87.7258 271° West 178 205 2,900 -871 Level Chicago Center
06:35PM 41.9839 -87.7900 269° West 176 203 2,000 -871 Descending Chicago Center
06:35PM 41.9839 -87.7900 269° West 176 203 2,000 -677 Level Chicago Center
06:36PM 41.9842 -87.8475 270° West 170 196 1,300 -677 Descending Chicago Center
06:36PM 41.9842 -87.8475 270° West 170 196 1,300  Level Chicago Center